TimeMDT,TemperatureF,Dew PointF,Humidity,Sea Level PressureIn,VisibilityMPH,Wind Direction,Wind SpeedMPH,Gust SpeedMPH,PrecipitationIn,Events,Conditions,WindDirDegrees,DateUTC
12:53 AM,39.0,19.9,46,30.19,10.0,SSW,15.0,-,N/A,,Clear,200,2013-04-19 06:53:00
1:53 AM,39.0,19.9,46,30.18,10.0,SSW,15.0,-,N/A,,Clear,200,2013-04-19 07:53:00
2:53 AM,39.0,21.9,50,30.17,10.0,SSW,17.3,23.0,N/A,,Clear,210,2013-04-19 08:53:00
3:53 AM,37.0,21.9,54,30.15,10.0,SSW,15.0,-,N/A,,Clear,210,2013-04-19 09:53:00
4:53 AM,35.1,23.0,61,30.15,10.0,SW,12.7,-,N/A,,Partly Cloudy,220,2013-04-19 10:53:00
5:53 AM,34.0,23.0,64,30.15,10.0,SW,8.1,-,N/A,,Clear,230,2013-04-19 11:53:00
6:53 AM,34.0,23.0,64,30.16,10.0,South,6.9,-,N/A,,Clear,190,2013-04-19 12:53:00
7:53 AM,37.9,24.1,57,30.15,10.0,SSW,12.7,-,N/A,,Clear,210,2013-04-19 13:53:00
8:53 AM,39.0,25.0,57,30.15,10.0,SSW,11.5,-,N/A,,Overcast,210,2013-04-19 14:53:00
9:53 AM,42.1,26.1,53,30.14,10.0,SSW,12.7,-,N/A,,Overcast,210,2013-04-19 15:53:00
10:53 AM,46.0,27.0,47,30.12,10.0,SW,15.0,-,N/A,,Overcast,230,2013-04-19 16:53:00
11:53 AM,45.0,27.0,49,30.12,10.0,SSW,18.4,24.2,N/A,,Overcast,200,2013-04-19 17:53:00
12:53 PM,46.0,27.0,47,30.08,10.0,South,11.5,21.9,N/A,,Overcast,190,2013-04-19 18:53:00
1:53 PM,46.9,30.9,54,30.06,10.0,SW,24.2,29.9,N/A,,Overcast,220,2013-04-19 19:53:00
2:23 PM,44.6,33.8,66,30.06,10.0,South,23.0,27.6,N/A,,Overcast,190,2013-04-19 20:23:00
2:53 PM,43.0,37.0,80,30.07,8.0,SSW,18.4,-,0.00,Rain,Light Rain,200,2013-04-19 20:53:00
2:57 PM,42.8,37.4,81,30.05,7.0,SSW,16.1,-,0.00,Rain,Light Rain,200,2013-04-19 20:57:00
3:53 PM,42.1,37.9,85,30.04,10.0,South,17.3,-,0.01,,Overcast,190,2013-04-19 21:53:00
4:53 PM,43.0,37.0,80,30.01,10.0,South,11.5,-,N/A,,Overcast,180,2013-04-19 22:53:00
5:53 PM,46.0,39.0,76,29.97,10.0,South,16.1,23.0,0.01,,Overcast,190,2013-04-19 23:53:00
6:00 PM,46.4,37.4,71,29.95,10.0,South,19.6,26.5,N/A,,Overcast,190,2013-04-20 00:00:00
6:53 PM,46.0,39.0,76,29.94,10.0,SSW,19.6,26.5,0.00,Rain,Light Rain,200,2013-04-20 00:53:00
7:21 PM,46.4,39.2,76,29.92,5.0,SSW,19.6,28.8,0.04,Rain,Light Rain,210,2013-04-20 01:21:00
7:41 PM,44.6,39.2,81,29.92,10.0,SSW,16.1,24.2,0.05,Rain,Light Rain,200,2013-04-20 01:41:00
7:53 PM,45.0,39.0,80,29.92,10.0,SSW,19.6,27.6,0.05,,Overcast,200,2013-04-20 01:53:00
8:53 PM,44.1,37.9,79,29.93,10.0,SSW,19.6,-,N/A,,Mostly Cloudy,200,2013-04-20 02:53:00
9:13 PM,44.6,39.2,81,29.93,10.0,SSW,17.3,-,N/A,,Overcast,200,2013-04-20 03:13:00
9:53 PM,44.1,39.9,85,29.94,10.0,SSW,18.4,21.9,N/A,,Overcast,210,2013-04-20 03:53:00
10:50 PM,42.8,37.4,81,29.94,10.0,South,18.4,25.3,N/A,,Overcast,190,2013-04-20 04:50:00
10:53 PM,42.1,37.9,85,29.94,10.0,SSW,18.4,25.3,N/A,,Overcast,200,2013-04-20 04:53:00
11:53 PM,43.0,37.9,82,29.94,10.0,SW,16.1,-,N/A,,Overcast,220,2013-04-20 05:53:00